Regional Weather Roundup
Issued by NWS

Home | Current Version | Previous Version | Graphics & Text | Print | Product List | Glossary On
Versions: 1 2 3 4 5 6 7 8 9 10 11 12 13 14 15 16 17 18 19 20 21 22 23 24 25 26 27 28 29 30 31 32 33 34 35 36 37 38 39 40 41 42 43 44 45 46 47 48 49 50
000
ASUS43 KLSX 272107
RWRMO
WEATHER SUMMARY FOR MISSOURI
NATIONAL WEATHER SERVICE SPRINGFIELD MO
400 PM CDT THU APR 27 2017

NOTE: "FAIR" INDICATES FEW OR NO CLOUDS BELOW 12,000 FEET WITH NO
       SIGNIFICANT WEATHER AND/OR OBSTRUCTIONS TO VISIBILITY.
       CURRENT SKY AND/OR WEATHER CONDITIONS ARE NOT AVAILABLE FOR
       CHILLICOTHE AND FARMINGTON.

MOZ001>031-035>038-043-044-053-054-272200-
...NORTHERN AND WESTERN MISSOURI...

CITY           SKY/WX    TMP DP  RH WIND       PRES   REMARKS
KANSAS CTY INT PTSUNNY   62  37  39 CALM      29.71F
KANSAS C DTWN  MOSUNNY   62  38  40 SW7       29.71F
LEE`S SUMMIT   CLOUDY    61  39  44 W7        29.72F
ST JOSEPH      SUNNY     61  37  41 VRB6      29.70F
CHILLICOTHE      N/A     61  38  42 VRB5      29.72S
KIRKSVILLE     PTSUNNY   58  42  55 SW12      29.72F

$$
MOZ066>068-077>081-088>096-101>105-272200-
...SOUTHWEST MISSOURI...

CITY           SKY/WX    TMP DP  RH WIND       PRES   REMARKS
SPRINGFIELD    SUNNY     62  40  44 SW7       29.74F
JOPLIN         MOSUNNY   65  46  50 VRB5      29.71F
BRANSON        PTSUNNY   64  37  36 CALM      29.75F

$$
MOZ032>034-039>042-045>050-055>058-069>072-272200-
...CENTRAL MISSOURI...

CITY           SKY/WX    TMP DP  RH WIND       PRES   REMARKS
COLUMBIA       SUNNY     58  42  55 VRB5      29.74F
JEFFERSON CITY SUNNY     62  42  47 S7        29.74F
ROLLA          SUNNY     59  42  53 CALM      29.74F
SEDALIA        SUNNY     61  47  59 W5        29.73F
WHITEMAN AFB   PTSUNNY   60  44  55 S7        29.71F
OSAGE BEACH    SUNNY     61  40  45 CALM      29.74F

$$
MOZ051-052-059>065-272200-
...EAST CENTRAL MISSOURI...

CITY           SKY/WX    TMP DP  RH WIND       PRES   REMARKS
ST LOUIS INTL  MOSUNNY   61  43  51 SW10      29.78F
SPIRIT OF STL  MOSUNNY   59  43  55 W5        29.76F
ST CHARLES     MOSUNNY   58  43  57 W9        29.77F

$$
MOZ072>076-082>087-097>100-106>115-272200-
...SOUTH CENTRAL AND SOUTHEAST MISSOURI...

CITY           SKY/WX    TMP DP  RH WIND       PRES   REMARKS
CAPE GIRARDEAU PTSUNNY   59  46  62 SW9       29.82S
FARMINGTON     SUNNY     63  43  48 CALM      29.77F
POPLAR BLUFF   MOSUNNY   62  51  67 S10       29.79F
WEST PLAINS    SUNNY     64  43  46 S3        29.77F

$$



USA.gov is the U.S. government's official web portal to all federal, state and local government web resources and services.